Location: Crescent
(42.8242°N, 73.7329°W)
Time: 21:21:46
(UTC+00:00)

SR - Pass Details

Date: 18 February 2026
Orbit: 573 x 848 km, 66.7° (Epoch: 6 March)

Event Time Altitude Azimuth Distance (km) Brightness Sun altitude
Rises 09:27:02 0° 215° (SW) 2,766 - -26.4°
Reaches altitude 10° 09:29:13 10° 217° (SW) 1,879 - -26.0°
Maximum altitude 09:33:23 72° 302° (WNW) 621 - -25.3°
Exits shadow 09:34:28 48° 11° (N) 777 ? -25.1°
Drops below altitude 10° 09:37:47 10° 27° (NNE) 1,973 ? -24.5°
Sets 09:40:08 0° 30° (NNE) 2,919 ? -24.0°
